TimeCDT,TemperatureF,Dew PointF,Humidity,Sea Level PressureIn,VisibilityMPH,Wind Direction,Wind SpeedMPH,Gust SpeedMPH,PrecipitationIn,Events,Conditions,WindDirDegrees,DateUTC
12:51 AM,55.0,46.0,72,30.05,10.0,South,3.5,-,N/A,,Clear,190,2012-11-01 05:51:00
1:51 AM,54.0,46.0,75,30.05,10.0,Calm,Calm,-,N/A,,Clear,0,2012-11-01 06:51:00
2:51 AM,50.0,45.0,83,30.04,10.0,SW,4.6,-,N/A,,Clear,230,2012-11-01 07:51:00
3:51 AM,52.0,45.0,77,30.03,10.0,Calm,Calm,-,N/A,,Clear,0,2012-11-01 08:51:00
4:51 AM,51.1,45.0,80,30.03,10.0,SW,3.5,-,N/A,,Clear,220,2012-11-01 09:51:00
5:51 AM,48.0,44.1,86,30.04,10.0,WSW,3.5,-,N/A,,Clear,240,2012-11-01 10:51:00
6:51 AM,46.9,44.1,90,30.04,10.0,West,3.5,-,N/A,,Clear,270,2012-11-01 11:51:00
7:51 AM,46.0,43.0,89,30.06,10.0,Calm,Calm,-,N/A,,Clear,0,2012-11-01 12:51:00
8:51 AM,51.1,46.0,83,30.08,10.0,Calm,Calm,-,N/A,,Clear,0,2012-11-01 13:51:00
9:51 AM,59.0,50.0,72,30.09,10.0,Calm,Calm,-,N/A,,Clear,0,2012-11-01 14:51:00
10:51 AM,66.9,54.0,63,30.09,10.0,Calm,Calm,-,N/A,,Clear,0,2012-11-01 15:51:00
11:51 AM,72.0,57.0,59,30.08,10.0,Calm,Calm,-,N/A,,Clear,0,2012-11-01 16:51:00
12:51 PM,78.1,57.0,48,30.04,10.0,Calm,Calm,-,N/A,,Clear,0,2012-11-01 17:51:00
1:51 PM,81.0,52.0,36,30.01,10.0,South,5.8,-,N/A,,Clear,170,2012-11-01 18:51:00
2:51 PM,82.9,50.0,32,29.97,10.0,SSW,8.1,-,N/A,,Clear,200,2012-11-01 19:51:00
3:51 PM,84.0,45.0,25,29.95,9.0,SSW,11.5,16.1,N/A,,Clear,200,2012-11-01 20:51:00
4:51 PM,82.9,46.0,27,29.94,10.0,South,5.8,-,N/A,,Clear,190,2012-11-01 21:51:00
5:51 PM,82.9,46.0,27,29.94,10.0,South,9.2,-,N/A,,Clear,190,2012-11-01 22:51:00
6:51 PM,75.9,48.0,37,29.95,10.0,SSW,5.8,-,N/A,,Clear,200,2012-11-01 23:51:00
7:51 PM,69.1,48.0,47,29.96,10.0,South,5.8,-,N/A,,Clear,190,2012-11-02 00:51:00
8:51 PM,66.0,48.0,52,29.97,10.0,South,6.9,-,N/A,,Clear,180,2012-11-02 01:51:00
9:51 PM,63.0,48.9,60,29.98,10.0,South,6.9,-,N/A,,Clear,190,2012-11-02 02:51:00